User: anonymous
Location: Unspecified
(0.0000°N, 0.0000°E)
Time: 07:59:11
(UTC+02:00)
Language:

Cosmos 1295 Rocket - Orbit

View from above orbital plane
View from above orbital plane
View from above satellite
View from above satellite

Ground track
Ground track

The orbit data is extracted from the following two-line orbital elements,

1 12682U 81077B   14272.52615759  .00000130  00000-0  11313-3 0  7846
2 12682 082.9193 037.7907 0033075 243.6752 163.9220 13.78459607666240
Epoch (UTC): 29 September 2014 12:37:40
Eccentricity: 0.0033075
inclination: 82.9193°
perigee height: 945 km
apogee height: 993 km
right ascension of ascending node: 37.7907°
argument of perigee: 243.6752°
revolutions per day: 13.78459607
mean anomaly at epoch: 163.9220°
orbit number at epoch: 66624

The dashed part of the orbit path shows where the satellite is in the earth's shadow,  

DLR